Weather in Hoholskij

Russia / Voronezh Oblast     51°34′40″N   38°47′11″E
temp.,
°C
wind,
m/s
gust,
m/s
humid.,
%
clouds,
%
prec.,
mm/h
press.,
hPa
HPBL,
m
2 march, tue
tue200:00−1w5108543 0.0 1026650
03:00−1wsw7138271 0.0 1023635
06:00−1wsw81487100 0.0 1020734
09:000w81587100 0.0 1018709
12:00+1w71393100 0.0 1015727
15:00+1w71395100 0.1 1014582
18:00+1wnw61197100 0.4 1012523
21:000nw4998100 0.8 1012472
3 march, wed
wed300:00−1nnw5119195 0.3 1012425
03:00−2nnw5118874 0.4 1014443
06:00−2nw6128990 0.0 1015508
09:00−2nnw8128094 0.1 1017981
12:00−2nnw8116792 0.0 10191173
15:00−1nw7106846 0.0 10201059
18:00−2wnw4108218 0.0 1020484
21:00−2w512839 0.0 1021415
4 march, thu
thu400:00−2wnw4119180 0.0 1020477
03:00−2wsw4109078 0.0 1019374
06:00−2wsw5119373 0.0 1017344
09:00−1wsw7138339 0.0 1016514
12:00+2wsw813650 0.0 1013778
15:00+4sw915560 0.0 1011882
18:00+3sw918670 0.0 1008705
21:00+2sw818761 0.0 1007629
5 march, fri
fri500:00+3wsw7168480 0.0 1006598
03:00+2wsw6129390 0.0 1006456
06:00+2sw41194100 0.1 1007397
09:00+2wsw5119197 0.1 1007620
12:00+4wsw5883100 0.0 1007744
15:00+3sw51296100 1.1 1006552
18:00+3sw71596100 4.1 1004714
21:00+3wsw51198100 7.6 1004458
6 march, sat
sat600:00+1wnw5897100 0.3 1005387
03:00−2nnw61088100 0.6 1007533
06:00−3nnw6981100 0.0 1010727
09:00−3nw687896 0.1 1012796
12:00−2nw685332 0.0 10141220
15:00−2nw575016 0.0 10141335
18:00−3nw35610 0.0 1015501
21:00−3n346321 0.0 1016684